Location: Morrison Observatory
(41.7012°N, 86.2315°W)
Time: 23:38:11
(UTC-04:00)

Daily predictions for brighter satellites

Satellite Brightness Start Highest point End
(mag) Time Altitude Azimuth Time Altitude Azimuth Time Altitude Azimuth
CZ-3B R/B 4.5 21:46:26 10° S 21:49:03 30° ESE 21:55:32 10° NE
Meteor 1-24 Rocket 4.1 21:48:37 10° SSW 21:54:32 77° W 22:00:17 10° N
Cosmos 1570 Rocket 4.3 21:49:58 10° NNW 21:55:13 58° ENE 22:00:24 10° SSE
USA 32 4.0 21:52:09 10° S 21:57:22 75° E 22:02:37 10° N
Atlas Centaur 2 3.2 21:56:13 10° SW 21:57:44 12° SSW 21:59:13 10° SSE
Abrixas rocket 3.9 21:58:33 10° NW 22:01:26 28° NNE 22:04:19 10° ENE
Cosmos 1242 Rocket 3.2 21:59:52 10° N 22:03:25 40° ENE 22:06:55 10° SSE
SAR-Lupe-1 4.1 22:04:26 10° SSE 22:08:00 71° ENE 22:11:37 10° N
Helios 1B rocket 2.6 22:04:11 10° NNE 22:08:21 83° WNW 22:12:29 10° SSW
Cosmos 2084 3.2 22:07:47 10° SW 22:11:48 89° SSE 22:15:41 10° NE
USA 186 4.2 22:13:39 10° WSW 22:14:22 11° W 22:15:06 10° WNW
Cosmos 2333 Rocket 4.5 22:11:03 10° NW 22:15:05 20° W 22:19:04 10° SW
Cosmos 1867 3.5 22:09:45 10° SSW 22:15:10 76° ESE 22:20:39 10° NE
Milstar 3 Cent rocket 4.3 22:09:25 10° WSW 22:15:21 29° S 22:25:01 11° SE
Resurs 01 Rocket 4.1 22:13:27 10° SW 22:16:40 20° W 22:19:55 10° NW
USA 234 3.7 22:11:46 10° ENE 22:17:46 38° SE 22:23:44 10° SSW
Helios 1A 3.7 22:13:45 10° S 22:17:47 51° W 22:21:51 10° NNW
Cosmos 1850 Rocket 4.2 22:16:46 10° SSW 22:21:56 75° WNW 22:27:09 10° NNE
NOAA 11 4.3 22:17:10 10° SSE 22:22:31 68° ENE 22:27:56 10° N
Cosmos 1459 Rocket 4.0 22:19:18 10° N 22:25:38 75° E 22:31:48 10° SSE
ERS-1 Rocket 3.0 22:22:10 10° SSE 22:27:12 83° ENE 22:32:15 10° NNW
Terra 3.7 22:24:25 10° E 22:27:18 16° ENE 22:30:12 10° NNE
Cosmos 2227 4.3 22:22:08 10° S 22:27:44 57° ESE 22:33:18 10° NNE
H-2A ROCKET BODY 3.8 22:28:28 10° S 22:31:08 14° SE 22:35:46 10° ESE
Cosmos 2100 Rocket 4.1 22:25:08 10° N 22:31:29 89° E 22:37:52 10° S
Cosmos 332 Rocket 4.4 22:28:38 10° N 22:33:22 45° ENE 22:37:02 16° SE
Cosmos 1356 Rocket 3.6 22:33:14 10° SSW 22:37:29 78° W 22:41:49 10° N
Cosmos 2061 Rocket 4.1 22:32:14 10° N 22:38:40 85° E 22:45:06 10° S
MetOp-B 4.1 22:35:14 11° SSE 22:40:19 83° ENE 22:45:43 10° NNW
Cosmos 2173 Rocket 4.0 22:35:08 10° N 22:41:20 85° W 22:47:33 10° S
Cosmos 2123 Rocket 4.2 22:36:06 10° SSE 22:42:02 51° E 22:48:01 10° NNE
H-2A R/B 2.6 22:39:05 16° SE 22:43:09 47° ENE 22:48:20 10° N
YAOGAN 6 4.2 22:40:00 10° SSW 22:43:17 33° W 22:46:39 10° NNW
Cosmos 1626 4.1 22:44:38 14° E 22:45:19 14° E 22:47:19 10° NE
Cosmos 2058 4.5 22:44:53 17° ESE 22:46:23 20° E 22:49:29 10° NE
Cosmos 1726 2.1 22:46:09 10° N 22:49:49 65° E 22:52:04 21° SSE
Cosmos 2263 Rocket 3.0 22:46:57 17° SSE 22:50:17 30° ESE 22:55:03 10° NE
Cosmos 1300 2.9 22:49:44 10° N 22:53:31 54° E 22:55:37 24° SSE
RESURS DK-1 2.3 22:50:10 10° NNW 22:54:21 81° ENE 22:56:54 23° SSE
ATLAS 5 CENTAUR R/B 3.5 22:50:17 10° WSW 22:54:39 37° NW 22:59:25 10° NNE
SL-14 R/B 3.4 22:53:30 19° SSE 22:56:11 56° E 23:00:03 10° NNE
EO 1 Delta rocket 3.9 22:55:37 20° SSE 22:58:50 64° ENE 23:03:27 10° N
Cosmos 1408 Rocket 3.8 22:55:46 10° SSW 23:00:01 68° W 23:04:21 10° N
Meteor 2-2 Rocket 4.3 22:57:25 10° N 23:03:14 82° E 23:07:37 19° SSE
Cosmos 1725 Rocket 4.0 22:58:31 10° N 23:04:48 75° E 23:09:19 20° SSE
ERBS 2.7 23:01:37 10° NW 23:04:57 55° NE 23:06:28 28° ESE
Cosmos 1328 3.7 23:02:47 20° S 23:05:32 72° E 23:09:33 10° NNE
Cosmos 1802 Rocket 4.3 22:59:53 10° NNW 23:05:57 63° W 23:11:50 11° S
Cosmos 1356 4.0 23:11:37 34° SE 23:12:24 39° E 23:15:42 10° NNE
Tiangong 1 0.9 23:09:37 10° W 23:12:25 72° N 23:13:24 35° E
Cosmos 2151 3.4 23:10:59 28° SSE 23:12:50 46° E 23:16:58 10° NNE
Cosmos 1603 4.0 23:13:14 10° NNW 23:18:49 62° WSW 23:22:24 22° S
Cosmos 1500 Rocket 3.5 23:18:03 26° S 23:20:30 70° E 23:24:57 10° NNE
Cosmos 1814 Rocket 4.1 23:16:31 10° NNW 23:21:53 78° WSW 23:24:55 26° S
DMSP B5D2-2 4.0 23:17:51 10° NNE 23:23:04 67° ESE 23:26:17 23° S
Cosmos 371 Rocket 3.3 23:18:28 10° NNW 23:23:18 76° WSW 23:25:49 28° S
Cosmos 1455 3.3 23:23:26 10° NNE 23:26:50 29° ENE 23:27:33 27° E
CZ-4C R/B 3.7 23:28:14 17° E 23:28:14 17° E 23:31:10 10° ENE
ARGOS 4.0 23:24:14 15° SSW 23:28:27 46° W 23:33:39 10° NNW
Cosmos 1486 Rocket 4.0 23:24:28 13° SSW 23:29:13 89° ESE 23:34:34 10° NNE
SPOT 5 3.8 23:26:16 17° SSW 23:29:41 45° W 23:34:35 10° NNW
CARTOSAT-1 3.6 23:29:27 36° SE 23:31:03 64° ENE 23:35:21 10° N
Cosmos 841 Rocket 3.4 23:26:12 10° NNW 23:31:29 80° ENE 23:33:53 33° SSE
Lacrosse 5 2.2 23:27:30 10° NW 23:32:25 52° SW 23:34:30 31° S
Cosmos 1763 Rocket 3.4 23:27:56 10° NNW 23:33:03 78° WSW 23:35:29 31° S
Cosmos 1943 3.1 23:28:18 10° NNW 23:33:58 88° ENE 23:36:46 32° SSE
SL-19 R/B 4.4 23:30:04 10° NNE 23:35:18 53° ESE 23:37:45 31° SSE
SPOT 1/Viking Rocket 4.1 23:35:08 22° S 23:38:16 53° W 23:43:20 10° NNW
Abrixas rocket 2.0 23:35:11 10° WNW 23:38:26 82° SSW 23:38:41 73° SSE
Cosmos 1805 Rocket 4.4 23:39:13 31° ESE 23:39:45 32° E 23:43:38 10° NNE
Cosmos 1515 Rocket 4.2 23:44:28 10° NNW 23:48:39 49° W 23:50:33 28° SSW
Cosmos 1151 Rocket 3.3 23:44:36 10° NNW 23:48:57 65° W 23:50:35 36° SSW
Landsat 7 4.2 23:47:28 30° SSW 23:49:37 58° W 23:54:20 10° NNW
IGS 5A 3.4 23:48:26 46° S 23:49:38 84° W 23:53:49 10° NNW
H-2A R/B 1.9 23:51:01 48° SSE 23:52:11 82° ENE 23:56:27 10° NNW
SME Rocket 3.8 23:52:50 33° E 23:53:45 38° ENE 23:58:01 10° N
